Location: Althorst
(53.6379°N, 10.7715°E)
Time: 20:08:23
(UTC+00:00)

Cosmos 1092 Rocket - Pass Details

Date: 10 December 2019
Orbit: 953 x 996 km, 83.0° (Epoch: 22 January)

Event Time Altitude Azimuth Distance (km) Brightness Sun altitude
Rises 16:55:43 0° 176° (S) 3,693 7.2 -16.3°
Reaches altitude 10° 16:58:16 10° 174° (S) 2,744 6.5 -16.6°
Maximum altitude 17:04:28 64° 94° (E) 1,086 4.0 -17.5°
Drops below altitude 10° 17:10:39 10° 15° (NNE) 2,735 6.1 -18.4°
Sets 17:13:10 0° 13° (NNE) 3,680 6.8 -18.8°
